sat.trackr.live / text

‹ back to catalog

STARLINK-5613

NORAD 55752 · 2023-028M

PAYLOAD ACTIVE UNKNOWN

§ Identity

Operator
Country
US
Launch date
2023-03-03
Launch site
AFWTR
Launch vehicle
Mass (kg)
RCS (m²)

Purposes: comms

External: N2YO · Heavens-Above · Gunter

§ Orbital elements

Epoch: 2026-09-20T22:00:03.000096Z

Period
95.89 min
Inclination
70.0009°
Eccentricity
0.0003283
Mean motion
15.01762577 rev/d
Perigee alt
559.2 km
Apogee alt
563.7 km
Semi-major
6,939.6 km
B*
6.2410e-3
RAAN
112.0738°
Arg perigee
291.6637°
Mean anomaly
189.7913°
Rev number
576

§ Raw data

STARLINK-56131 55752U 23028M   26263.91670139  .00082305  00000+0  62410-2 0  99962 55752  70.0009 112.0738 0003283 291.6637 189.7913 15.01762577  5761

JSON: /api/v1/satellites/55752 · /tle

For live sub-satellite position, see the globe view (requires WebGL).

§ Visibility from observer

Set your observer location to see the next 7 days of passes ≥ 10°. The values pass through the URL so the page stays shareable.

No JS? Fill the form by hand. The geolocation button needs JavaScript.